User: anonymous   Login
Location: Callanans Corners
(42.5326°N, 73.8846°W)
Time: 11:08:44
(UTC+00:00)
Language:

Cosmos 1025 Rocket - Orbit

View from above orbital plane
View from above orbital plane
View from above satellite
View from above satellite

Ground track
Ground track

The orbit data is extracted from the following two-line orbital elements,

1 10974U 78067B   24104.84922746  .00000701  00000-0  72634-4 0  9996
2 10974  82.4813 327.4188 0017057   5.1269 355.0120 14.88508555456982
Epoch (UTC): 13 April 2024 20:22:53
Eccentricity: 0.0017057
inclination: 82.4813°
perigee height: 590 km
apogee height: 614 km
right ascension of ascending node: 327.4188°
argument of perigee: 5.1269°
revolutions per day: 14.88508555
mean anomaly at epoch: 355.0120°
orbit number at epoch: 45698

The dashed part of the orbit path shows where the satellite is in the earth's shadow,  

DLR